Location: Tamazert
(32.6352°N, 5.2072°W)
Time: 21:07:40
(UTC+00:00)

S-56A Canister/Altair - All Passes

Search period start: 30 September 2022 00:00
Search period end: 10 October 2022 00:00
Orbit: 637 x 2496 km, 38.9° (Epoch: 30 September)

Date Brightness Start Highest point End Pass type
(mag) Time Alt. Az. Time Alt. Az. Time Alt. Az.
30 Sep - 00:51:05 10° SW 01:03:34 55° SSE 01:12:06 10° ENE visible
30 Sep - 02:57:57 10° WSW 03:08:49 73° NNW 03:15:49 10° ENE visible
30 Sep - 05:06:04 10° WNW 05:13:57 50° N 05:19:20 10° ENE visible
30 Sep - 07:12:23 10° WNW 07:18:28 85° NNE 07:23:06 10° ESE daylight
30 Sep - 09:18:22 10° W 09:21:33 18° SW 09:24:35 10° S daylight
30 Sep - 22:16:47 10° S 22:24:52 18° SE 22:31:53 10° E night (unlit)
01 Oct - 00:17:36 10° SW 00:30:25 51° SSE 00:39:27 10° ENE visible
01 Oct - 02:24:08 10° WSW 02:35:50 79° NNW 02:43:23 10° ENE visible
01 Oct - 04:32:28 10° WNW 04:41:08 52° N 04:46:55 10° ENE visible
01 Oct - 06:39:16 10° WNW 06:45:54 76° NNE 06:50:42 10° ESE daylight
01 Oct - 08:45:10 10° W 08:49:08 23° SW 08:52:41 10° SSE daylight
01 Oct - 21:44:39 10° SSE 21:51:38 15° SE 21:57:58 10° ESE night (unlit)
01 Oct - 23:44:12 10° SSW 23:57:12 47° SE 00:06:42 10° ENE night (unlit)
02 Oct - 01:50:19 10° WSW 02:02:47 85° NNW 02:10:54 10° ENE visible
02 Oct - 03:58:46 10° W 04:08:15 54° N 04:14:30 10° ENE visible
02 Oct - 06:06:02 10° WNW 06:13:16 70° NNE 06:18:19 10° ESE daylight
02 Oct - 08:12:01 10° W 08:16:43 29° SW 08:20:39 10° SSE daylight
02 Oct - 21:13:02 10° SSE 21:18:24 13° SE 21:23:26 10° ESE visible
02 Oct - 23:10:52 10° SSW 23:23:56 43° SE 23:33:50 10° ENE night (unlit)
03 Oct - 01:16:30 10° WSW 01:29:39 89° SSE 01:38:23 10° ENE visible
03 Oct - 03:24:57 10° W 03:35:19 57° N 03:42:04 10° ENE visible
03 Oct - 05:32:41 10° WNW 05:40:34 66° NNE 05:45:54 10° E visible
03 Oct - 07:38:51 10° WNW 07:44:16 37° SW 07:48:34 10° SSE daylight
03 Oct - 20:43:02 10° SE 20:45:10 10° SE 20:47:16 10° ESE visible
03 Oct - 22:37:39 10° SSW 22:50:38 39° SE 23:00:53 10° E visible
04 Oct - 00:42:43 10° WSW 00:56:27 84° SSE 01:05:48 10° ENE visible
04 Oct - 02:51:05 10° W 03:02:18 60° N 03:09:36 10° ENE visible
04 Oct - 04:59:12 10° WNW 05:07:48 63° NNE 05:13:30 10° E visible
04 Oct - 07:05:38 10° WNW 07:11:49 46° SW 07:16:25 10° SE daylight
04 Oct - 22:04:33 10° SSW 22:17:18 36° SE 22:27:48 10° E visible
05 Oct - 00:08:59 10° SW 00:23:12 78° SSE 00:33:09 10° ENE visible
05 Oct - 02:17:09 10° W 02:29:12 64° NNW 02:37:06 10° ENE visible
05 Oct - 04:25:38 10° WNW 04:34:58 61° N 04:41:04 10° E visible
05 Oct - 06:32:22 10° WNW 06:39:18 57° SSW 06:44:14 10° SE daylight
05 Oct - 21:31:36 10° SSW 21:43:57 32° SE 21:54:34 10° E visible
05 Oct - 23:35:19 10° SW 23:49:51 73° SSE 00:00:27 10° ENE night (unlit)
06 Oct - 01:43:11 10° W 01:56:02 67° NNW 02:04:35 10° ENE visible
06 Oct - 03:51:56 10° WNW 04:02:02 60° N 04:08:36 10° E visible
06 Oct - 05:59:01 10° WNW 06:06:45 68° SSW 06:12:00 10° SE daylight
06 Oct - 08:07:46 10° WSW 08:09:22 11° SW 08:10:52 10° SSW daylight
06 Oct - 20:58:49 10° S 21:10:36 29° SE 21:21:09 10° E visible
06 Oct - 23:01:44 10° SW 23:16:28 68° SSE 23:27:38 10° ENE visible
07 Oct - 01:09:14 10° W 01:22:47 71° NNW 01:31:59 10° ENE visible
07 Oct - 03:18:08 10° WNW 03:29:02 60° N 03:36:07 10° E visible
07 Oct - 05:25:35 10° WNW 05:34:06 78° SSW 05:39:43 10° ESE visible
07 Oct - 07:33:23 10° W 07:36:56 16° SW 07:39:59 10° S daylight
07 Oct - 20:26:14 10° S 20:37:16 25° SE 20:47:31 10° E visible
07 Oct - 22:28:15 10° SW 22:43:01 63° SSE 22:54:45 10° ENE visible
08 Oct - 00:35:17 10° WSW 00:49:28 75° NNW 00:59:21 10° ENE visible
08 Oct - 02:44:16 10° WNW 02:55:57 60° N 03:03:35 10° E visible
08 Oct - 04:52:04 10° WNW 05:01:22 87° SSW 05:07:23 10° ESE visible
08 Oct - 06:59:34 10° W 07:04:32 21° SW 07:08:28 10° S daylight
08 Oct - 19:53:52 10° S 20:03:57 22° SE 20:13:38 10° E visible
08 Oct - 21:54:53 10° SW 22:09:33 58° SE 22:21:45 10° ENE visible
09 Oct - 00:01:23 10° WSW 00:16:04 79° NNW 00:26:38 10° ENE night (unlit)
09 Oct - 02:10:19 10° W 02:22:47 61° N 02:31:02 10° E visible
09 Oct - 04:18:28 10° WNW 04:28:33 85° NNE 04:35:02 10° ESE visible
09 Oct - 06:25:53 10° W 06:32:04 27° SW 06:36:42 10° SSE daylight
09 Oct - 19:21:50 10° SSE 19:30:41 19° SE 19:39:25 10° E visible
09 Oct - 21:21:39 10° SW 21:36:04 53° SE 21:48:39 10° ENE visible
09 Oct - 23:27:33 10° WSW 23:42:36 84° NNW 23:53:52 10° ENE visible
